This is the latest recevied weather packets stored in our database for station/object OZ1IEP-5. If no packets are shown the sender has not sent any weather packets the latest 10 day(s).
| Time | Temp. | Humidity | Pressure | Rain* | Wind** | Luminosity | Snow |
|---|---|---|---|---|---|---|---|
| 1788020406 | 17.78° C | 90% | 1004.8 hPa | 0.25 mm | - | 77 W/m² | - |
| 1788019806 | 17.78° C | 90% | 1004.8 hPa | 2.03 mm | - | 86 W/m² | - |
| 1788019209 | 17.78° C | 90% | 1004.7 hPa | 3.05 mm | - | 63 W/m² | - |
| 1788018606 | 17.78° C | 89% | 1004.7 hPa | 3.3 mm | - | 149 W/m² | - |
| 1788018005 | 17.78° C | 88% | 1004.7 hPa | 3.3 mm | - | 98 W/m² | - |
| 1788017408 | 17.78° C | 88% | 1004.6 hPa | 3.56 mm | - | 120 W/m² | - |
| 1788016806 | 18.33° C | 88% | 1004.7 hPa | 3.3 mm | - | 26 W/m² | - |
| 1788016206 | 18.89° C | 86% | 1004.7 hPa | 1.52 mm | - | 35 W/m² | - |
| 1788015609 | 19.44° C | 85% | 1004.7 hPa | 0.51 mm | - | 37 W/m² | - |
| 1788015006 | 19.44° C | 84% | 1004.7 hPa | 0.25 mm | - | 77 W/m² | - |
| 1788014406 | 20° C | 82% | 1004.7 hPa | 0.25 mm | - | 79 W/m² | - |
| 1788013809 | 20° C | 81% | 1004.6 hPa | 0 mm | - | 120 W/m² | - |
| 1788013206 | 20.56° C | 80% | 1004.6 hPa | 0 mm | - | 60 W/m² | - |
| 1788012605 | 20.56° C | 79% | 1004.6 hPa | 0 mm | - | 81 W/m² | - |
| 1788012008 | 20.56° C | 80% | 1004.5 hPa | 0 mm | - | 272 W/m² | - |
| 1788011406 | 20.56° C | 79% | 1004.5 hPa | 0 mm | - | 179 W/m² | - |
| 1788010807 | 20.56° C | 81% | 1004.5 hPa | 0 mm | - | 626 W/m² | - |
| 1788010209 | 20.56° C | 82% | 1004.5 hPa | 0 mm | - | 257 W/m² | - |
| 1788009606 | 20° C | 83% | 1004.4 hPa | 0 mm | - | 206 W/m² | - |
| 1788009006 | 19.44° C | 85% | 1004.4 hPa | 0 mm | - | 313 W/m² | - |
| 1788008408 | 18.89° C | 86% | 1004.4 hPa | 0 mm | - | 367 W/m² | - |
| 1788007806 | 18.89° C | 85% | 1004.4 hPa | 0 mm | - | 97 W/m² | - |
| 1788007205 | 18.89° C | 86% | 1004.5 hPa | 0 mm | - | 185 W/m² | - |
| 1788006609 | 18.89° C | 86% | 1004.4 hPa | 0 mm | - | 253 W/m² | - |
| 1788006006 | 18.33° C | 86% | 1004.4 hPa | 0 mm | - | 107 W/m² | - |
* Rain latest hour (hover to see other rain measurements)
** Current wind speed in m/s (hover to see current wind gust speed)